TimeCST,TemperatureF,Dew PointF,Humidity,Sea Level PressureIn,VisibilityMPH,Wind Direction,Wind SpeedMPH,Gust SpeedMPH,PrecipitationIn,Events,Conditions,WindDirDegrees,DateUTC
12:15 AM,44.6,41.0,87,29.91,5.0,SW,5.8,-,N/A,,Clear,230,2012-11-22 06:15:00
12:35 AM,44.6,42.8,93,29.91,6.0,WSW,4.6,-,N/A,,Clear,240,2012-11-22 06:35:00
12:55 AM,44.6,41.0,87,29.90,5.0,SW,4.6,-,N/A,,Clear,230,2012-11-22 06:55:00
1:15 AM,42.8,42.8,100,29.90,5.0,SW,5.8,-,N/A,,Clear,220,2012-11-22 07:15:00
1:35 AM,44.6,41.0,87,29.90,5.0,WSW,5.8,-,N/A,,Clear,240,2012-11-22 07:35:00
1:55 AM,44.6,41.0,87,29.89,6.0,SW,8.1,-,N/A,,Clear,230,2012-11-22 07:55:00
2:15 AM,46.4,42.8,87,29.88,7.0,SW,4.6,-,N/A,,Clear,230,2012-11-22 08:15:00
2:35 AM,44.6,42.8,93,29.88,7.0,SW,8.1,-,N/A,,Clear,220,2012-11-22 08:35:00
2:55 AM,46.4,42.8,87,29.87,7.0,SW,10.4,-,N/A,,Clear,220,2012-11-22 08:55:00
3:15 AM,46.4,42.8,87,29.86,7.0,SW,9.2,-,N/A,,Clear,220,2012-11-22 09:15:00
3:35 AM,44.6,42.8,93,29.84,7.0,SW,8.1,-,N/A,,Clear,220,2012-11-22 09:35:00
3:55 AM,44.6,42.8,93,29.84,7.0,SW,9.2,-,N/A,,Clear,220,2012-11-22 09:55:00
4:15 AM,46.4,42.8,87,29.83,7.0,SW,9.2,-,N/A,,Clear,220,2012-11-22 10:15:00
4:35 AM,46.4,42.8,87,29.82,7.0,SW,15.0,-,N/A,,Clear,220,2012-11-22 10:35:00
4:55 AM,46.4,42.8,87,29.81,7.0,SW,15.0,20.7,N/A,,Clear,220,2012-11-22 10:55:00
5:15 AM,46.4,41.0,81,29.81,8.0,SW,16.1,-,N/A,,Clear,220,2012-11-22 11:15:00
5:35 AM,46.4,42.8,87,29.80,8.0,SSW,19.6,25.3,N/A,,Clear,210,2012-11-22 11:35:00
5:55 AM,46.4,41.0,81,29.80,8.0,SSW,15.0,21.9,N/A,,Clear,210,2012-11-22 11:55:00
6:15 AM,48.2,41.0,76,29.79,10.0,SW,18.4,23.0,N/A,,Clear,220,2012-11-22 12:15:00
6:35 AM,48.2,39.2,71,29.78,10.0,SW,16.1,24.2,N/A,,Clear,220,2012-11-22 12:35:00
6:55 AM,48.2,39.2,71,29.78,9.0,SW,18.4,27.6,N/A,,Clear,220,2012-11-22 12:55:00
7:15 AM,48.2,39.2,71,29.78,9.0,SW,17.3,24.2,N/A,,Clear,230,2012-11-22 13:15:00
7:35 AM,50.0,39.2,66,29.78,9.0,SW,15.0,26.5,N/A,,Clear,230,2012-11-22 13:35:00
7:55 AM,51.8,39.2,62,29.77,9.0,SW,18.4,28.8,N/A,,Clear,220,2012-11-22 13:55:00
8:15 AM,51.8,39.2,62,29.77,9.0,SW,20.7,25.3,N/A,,Clear,220,2012-11-22 14:15:00
8:35 AM,51.8,39.2,62,29.76,9.0,SSW,18.4,26.5,N/A,,Clear,210,2012-11-22 14:35:00
8:55 AM,53.6,39.2,58,29.76,9.0,SW,20.7,29.9,N/A,,Clear,220,2012-11-22 14:55:00
9:15 AM,53.6,39.2,58,29.75,9.0,SW,19.6,26.5,N/A,,Clear,220,2012-11-22 15:15:00
9:35 AM,53.6,39.2,58,29.75,9.0,SW,19.6,27.6,N/A,,Clear,220,2012-11-22 15:35:00
9:55 AM,55.4,39.2,54,29.74,10.0,SSW,18.4,28.8,N/A,,Clear,210,2012-11-22 15:55:00
10:15 AM,55.4,39.2,54,29.74,10.0,SSW,19.6,24.2,N/A,,Clear,210,2012-11-22 16:15:00
10:35 AM,57.2,39.2,51,29.72,10.0,SW,20.7,27.6,N/A,,Clear,220,2012-11-22 16:35:00
10:55 AM,57.2,39.2,51,29.70,10.0,SSW,18.4,25.3,N/A,,Clear,210,2012-11-22 16:55:00
11:15 AM,59.0,39.2,48,29.70,10.0,SW,19.6,26.5,N/A,,Clear,220,2012-11-22 17:15:00
11:35 AM,59.0,39.2,48,29.68,10.0,SW,17.3,25.3,N/A,,Clear,220,2012-11-22 17:35:00
11:55 AM,60.8,39.2,45,29.67,10.0,SW,21.9,-,N/A,,Clear,220,2012-11-22 17:55:00
12:15 PM,60.8,39.2,45,29.66,10.0,SW,17.3,21.9,N/A,,Clear,220,2012-11-22 18:15:00
12:35 PM,60.8,41.0,48,29.65,10.0,SSW,13.8,19.6,N/A,,Clear,210,2012-11-22 18:35:00
12:55 PM,60.8,41.0,48,29.64,10.0,SSW,20.7,27.6,N/A,,Clear,210,2012-11-22 18:55:00
1:15 PM,60.8,41.0,48,29.63,10.0,SSW,17.3,23.0,N/A,,Clear,210,2012-11-22 19:15:00
1:35 PM,62.6,41.0,45,29.63,10.0,SW,17.3,23.0,N/A,,Clear,220,2012-11-22 19:35:00
1:55 PM,60.8,41.0,48,29.62,10.0,SW,18.4,25.3,N/A,,Clear,220,2012-11-22 19:55:00
2:15 PM,60.8,41.0,48,29.62,10.0,SW,17.3,24.2,N/A,,Clear,220,2012-11-22 20:15:00
2:35 PM,60.8,42.8,52,29.61,10.0,SW,16.1,25.3,N/A,,Clear,220,2012-11-22 20:35:00
2:55 PM,59.0,42.8,55,29.61,10.0,SSW,19.6,24.2,N/A,,Clear,210,2012-11-22 20:55:00
3:15 PM,57.2,42.8,59,29.61,10.0,SSW,16.1,21.9,N/A,,Clear,210,2012-11-22 21:15:00
3:35 PM,57.2,42.8,59,29.61,10.0,SSW,16.1,26.5,N/A,,Clear,210,2012-11-22 21:35:00
3:55 PM,57.2,42.8,59,29.62,10.0,SW,19.6,26.5,N/A,,Clear,220,2012-11-22 21:55:00
4:15 PM,57.2,42.8,59,29.61,10.0,SW,16.1,21.9,N/A,,Clear,220,2012-11-22 22:15:00
4:35 PM,57.2,42.8,59,29.61,10.0,SW,13.8,-,N/A,,Clear,220,2012-11-22 22:35:00
4:55 PM,55.4,42.8,63,29.61,10.0,SW,15.0,19.6,N/A,,Clear,220,2012-11-22 22:55:00
5:15 PM,55.4,42.8,63,29.61,10.0,SW,13.8,18.4,N/A,,Clear,220,2012-11-22 23:15:00
5:35 PM,55.4,44.6,67,29.61,10.0,SW,13.8,-,N/A,,Clear,220,2012-11-22 23:35:00
5:55 PM,55.4,44.6,67,29.61,10.0,SW,12.7,-,N/A,,Clear,220,2012-11-22 23:55:00
6:15 PM,55.4,44.6,67,29.60,10.0,SW,10.4,-,N/A,,Clear,220,2012-11-23 00:15:00
6:35 PM,53.6,44.6,72,29.60,10.0,SW,9.2,-,N/A,,Clear,220,2012-11-23 00:35:00
6:55 PM,53.6,44.6,72,29.59,10.0,SW,9.2,-,N/A,,Clear,220,2012-11-23 00:55:00
7:15 PM,53.6,42.8,67,29.59,10.0,SW,9.2,-,N/A,,Clear,220,2012-11-23 01:15:00
7:35 PM,53.6,44.6,72,29.58,10.0,SW,10.4,-,N/A,,Scattered Clouds,220,2012-11-23 01:35:00
7:55 PM,51.8,44.6,76,29.57,10.0,SSW,9.2,-,N/A,,Partly Cloudy,210,2012-11-23 01:55:00
8:15 PM,53.6,44.6,72,29.58,10.0,SW,10.4,-,N/A,,Scattered Clouds,220,2012-11-23 02:15:00
8:35 PM,53.6,44.6,72,29.57,10.0,SW,10.4,16.1,N/A,,Overcast,230,2012-11-23 02:35:00
8:55 PM,53.6,44.6,72,29.57,10.0,SW,9.2,-,N/A,,Overcast,230,2012-11-23 02:55:00
9:15 PM,53.6,44.6,72,29.56,10.0,SW,9.2,-,N/A,,Overcast,230,2012-11-23 03:15:00
9:35 PM,53.6,44.6,72,29.55,10.0,SW,9.2,-,N/A,,Overcast,230,2012-11-23 03:35:00
9:55 PM,53.6,44.6,72,29.55,10.0,WSW,9.2,-,N/A,,Overcast,240,2012-11-23 03:55:00
10:15 PM,53.6,44.6,72,29.54,10.0,WSW,8.1,-,N/A,,Overcast,240,2012-11-23 04:15:00
10:35 PM,55.4,44.6,67,29.54,10.0,WSW,9.2,19.6,N/A,,Overcast,240,2012-11-23 04:35:00
10:55 PM,53.6,41.0,62,29.55,10.0,West,16.1,23.0,N/A,,Overcast,260,2012-11-23 04:55:00
11:15 PM,48.2,37.4,66,29.55,10.0,West,15.0,25.3,N/A,,Overcast,260,2012-11-23 05:15:00
11:35 PM,46.4,35.6,66,29.56,10.0,West,18.4,29.9,N/A,,Scattered Clouds,260,2012-11-23 05:35:00
11:55 PM,44.6,33.8,66,29.56,10.0,West,15.0,25.3,N/A,,Scattered Clouds,270,2012-11-23 05:55:00